This is the latest recevied weather packets stored in our database for station/object DH0GMA. If no packets are shown the sender has not sent any weather packets the latest 10 day(s).
| Time | Temp. | Humidity | Pressure | Rain* | Wind** | Luminosity | Snow |
|---|---|---|---|---|---|---|---|
| 1777575756 | 11.11° C | 37% | 1025.5 hPa | 0 mm | - | - | - |
| 1777575155 | 11.67° C | 37% | 1025.4 hPa | 0 mm | - | - | - |
| 1777574555 | 11.67° C | 35% | 1025.3 hPa | 0 mm | - | - | - |
| 1777573955 | 12.22° C | 34% | 1025.2 hPa | 0 mm | - | - | - |
| 1777573355 | 12.22° C | 33% | 1025.2 hPa | 0 mm | - | - | - |
| 1777572755 | 12.78° C | 32% | 1025 hPa | 0 mm | - | - | - |
| 1777572155 | 13.33° C | 31% | 1025 hPa | 0 mm | - | - | - |
| 1777571555 | 13.33° C | 31% | 1024.9 hPa | 0 mm | - | - | - |
| 1777570954 | 13.33° C | 31% | 1024.9 hPa | 0 mm | - | - | - |
| 1777570354 | 13.33° C | 29% | 1024.8 hPa | 0 mm | - | - | - |
| 1777569756 | 13.89° C | 27% | 1024.9 hPa | 0 mm | - | - | - |
| 1777569156 | 13.89° C | 27% | 1024.9 hPa | 0 mm | - | - | - |
| 1777568556 | 14.44° C | 26% | 1024.9 hPa | 0 mm | - | - | - |
| 1777567954 | 14.44° C | 28% | 1024.9 hPa | 0 mm | - | - | - |
| 1777567354 | 15° C | 27% | 1024.8 hPa | 0 mm | - | - | - |
| 1777566756 | 15° C | 28% | 1024.8 hPa | 0 mm | - | - | - |
| 1777566156 | 15.56° C | 26% | 1024.7 hPa | 0 mm | - | - | - |
| 1777565555 | 15.56° C | 26% | 1024.6 hPa | 0 mm | - | - | - |
| 1777564954 | 15° C | 26% | 1024.6 hPa | 0 mm | - | - | - |
| 1777564354 | 15.56° C | 26% | 1024.6 hPa | 0 mm | - | - | - |
| 1777563754 | 15.56° C | 26% | 1024.4 hPa | 0 mm | - | - | - |
| 1777563155 | 15.56° C | 26% | 1024.5 hPa | 0 mm | - | - | - |
| 1777562555 | 15.56° C | 27% | 1024.5 hPa | 0 mm | - | - | - |
| 1777561955 | 15.56° C | 26% | 1024.3 hPa | 0 mm | - | - | - |
| 1777561355 | 16.11° C | 28% | 1024.4 hPa | 0 mm | - | - | - |
* Rain latest hour (hover to see other rain measurements)
** Current wind speed in m/s (hover to see current wind gust speed)